Date String (YYYY-MM-DD hh:mm:ss) UTC,Instrument flags,Ambient pressure (hPa),Sample flow (lpm),Bypass flow (lpm),Sample temperature (°C),Ambient temperature (°C),ASC tube jacket temperature (°C),LED temperature (°C),Box temperature (°C),Sample RH (%),Span deviation,Mass concentration (μg/m³),Mass concentration (μg/m³),Mass concentration (μg/m³)
DateTimeUTC,F1_M11,P_M11,Q1_M11,Q2_M11,T1_M11,T2_M11,T3_M11,T4_M11,T5_M11,U1_M11,ZSPAN_M11,X0_M11,X2_M11,X1_M11
2021-12-14 08:00:00,,0823.3,5.01,0.00,26.2,25.3,00.0,35.2,28.0,06.5,0000.0,0015.23,0004.11,0002.92
2021-12-14 08:01:00,,0823.4,4.98,0.00,26.2,25.3,00.0,35.2,27.9,06.4,0000.0,0017.21,0004.08,0002.93
2021-12-14 08:02:00,,0823.3,5.01,0.00,26.2,25.3,00.0,35.2,27.9,06.5,0000.0,0017.70,0004.20,0003.03
2021-12-14 08:03:00,,0823.4,4.99,0.00,26.2,25.3,00.0,35.2,27.9,06.5,0000.0,0018.40,0004.32,0003.14
2021-12-14 08:04:00,,0823.4,5.02,0.00,26.1,25.3,00.0,35.2,27.8,06.6,0000.0,0019.07,0004.39,0003.20
2021-12-14 08:05:00,,0823.4,4.99,0.00,26.1,25.2,00.0,35.2,27.8,06.6,0000.0,0019.76,0004.51,0003.27
2021-12-14 08:06:00,,0823.5,5.00,0.00,26.1,25.2,00.0,35.2,27.8,06.6,0000.0,0020.34,0004.62,0003.34
2021-12-14 08:07:00,,0823.4,4.99,0.00,26.1,25.2,00.0,35.2,27.8,06.6,0000.0,0020.28,0004.68,0003.40
2021-12-14 08:08:00,,0823.4,5.00,0.00,26.1,25.2,00.0,35.2,27.8,06.6,0000.0,0019.16,0004.75,0003.45
2021-12-14 08:09:00,,0823.4,5.01,0.00,26.0,25.1,00.0,35.1,27.7,06.7,0000.0,0019.38,0004.84,0003.52
2021-12-14 08:10:00,,0823.4,4.99,0.00,26.0,25.1,00.0,35.1,27.7,06.7,0000.0,0022.69,0004.92,0003.60
2021-12-14 08:11:00,,0823.4,5.00,0.00,26.0,25.1,00.0,35.1,27.7,06.8,0000.0,0022.79,0005.01,0003.67
2021-12-14 08:12:00,,0823.4,5.00,0.00,26.0,25.1,00.0,35.1,27.6,06.8,0000.0,0022.87,0005.12,0003.71
2021-12-14 08:13:00,,0823.4,5.00,0.00,26.0,25.1,00.0,35.1,27.7,06.8,0000.0,0023.57,0005.23,0003.78
2021-12-14 08:14:00,,0823.4,4.99,0.00,26.0,25.1,00.0,35.1,27.7,06.8,0000.0,0023.97,0005.27,0003.81
2021-12-14 08:15:00,,0823.3,5.01,0.00,26.0,25.1,00.0,35.1,27.7,06.9,0000.0,0023.92,0005.38,0003.86
2021-12-14 08:16:00,,0823.3,4.99,0.00,25.9,25.1,00.0,35.0,27.6,06.9,0000.0,0023.48,0005.51,0003.92
2021-12-14 08:17:00,,0823.3,5.01,0.00,25.9,25.1,00.0,35.0,27.6,06.9,0008.3,0023.05,0005.60,0003.97
2021-12-14 08:18:00,,0823.3,4.99,0.00,25.9,25.1,00.0,35.0,27.6,06.9,0010.4,0023.54,0005.71,0004.01
2021-12-14 08:19:00,,0823.4,5.01,0.00,25.9,25.0,00.0,35.0,27.6,06.9,0007.8,0024.51,0005.79,0004.06
2021-12-14 08:20:00,,0823.4,4.99,0.00,25.9,25.0,00.0,35.0,27.6,06.9,0011.0,0025.47,0005.89,0004.08
2021-12-14 08:21:00,,0823.4,5.00,0.00,25.8,25.0,00.0,35.0,27.6,06.9,0010.1,0023.46,0005.98,0004.09
2021-12-14 08:22:00,,0823.3,4.99,0.00,25.8,25.0,00.0,35.0,27.6,06.9,0007.6,0022.60,0006.01,0004.11
2021-12-14 08:23:00,,0823.3,5.01,0.00,25.9,25.0,00.0,34.9,27.6,07.0,0000.0,0023.64,0006.04,0004.13
2021-12-14 08:24:00,,0823.4,4.98,0.00,25.9,25.0,00.0,34.9,27.6,07.0,0007.3,0023.88,0006.09,0004.16
2021-12-14 08:25:00,,0823.4,5.01,0.00,25.8,25.0,00.0,34.9,27.5,06.9,0007.3,0024.14,0006.12,0004.18
2021-12-14 08:26:00,,0823.5,5.00,0.00,25.8,25.0,00.0,34.9,27.5,06.9,0006.6,0023.82,0006.15,0004.18
2021-12-14 08:27:00,,0823.6,5.00,0.00,25.8,25.0,00.0,34.9,27.5,06.9,0006.1,0024.17,0006.13,0004.19
2021-12-14 08:28:00,,0823.6,5.01,0.00,25.8,25.0,00.0,34.9,27.5,06.9,0005.8,0024.27,0006.11,0004.17
2021-12-14 08:29:00,,0823.7,4.99,0.00,25.8,25.0,00.0,34.9,27.5,07.0,0005.8,0024.44,0006.17,0004.17
2021-12-14 08:30:00,,0823.6,5.00,0.00,25.8,25.0,00.0,34.9,27.5,06.9,0005.0,0023.10,0006.13,0004.14
2021-12-14 08:31:00,,0823.5,5.01,0.00,25.8,25.0,00.0,34.9,27.5,06.8,0005.7,0022.22,0006.08,0004.12
2021-12-14 08:32:00,,0823.4,4.99,0.00,25.8,25.0,00.0,34.8,27.5,06.8,0004.9,0021.94,0006.00,0004.09
2021-12-14 08:33:00,,0823.4,5.01,0.00,25.8,25.0,00.0,34.8,27.5,06.8,0005.1,0022.07,0005.95,0004.04
2021-12-14 08:34:00,,0823.4,4.98,0.00,25.8,25.0,00.0,34.8,27.6,06.7,0005.3,0019.58,0005.84,0003.99
2021-12-14 08:35:00,,0823.3,5.00,0.00,25.8,25.0,00.0,34.8,27.6,06.8,0003.2,0018.62,0005.69,0003.93
2021-12-14 08:36:00,,0823.4,4.99,0.00,25.8,25.0,00.0,34.8,27.6,06.7,0000.0,0017.40,0005.61,0003.89
2021-12-14 08:37:00,,0823.4,5.01,0.00,25.8,25.0,00.0,34.8,27.6,06.7,0000.0,0017.36,0005.54,0003.86
2021-12-14 08:38:00,,0823.4,5.00,0.00,25.8,25.0,00.0,34.8,27.6,06.7,0000.0,0016.83,0005.51,0003.82
2021-12-14 08:39:00,,0823.4,5.00,0.00,25.8,25.0,00.0,34.8,27.6,06.7,0000.0,0016.03,0005.41,0003.79
2021-12-14 08:40:00,,0823.4,5.00,0.00,25.9,25.0,00.0,34.8,27.6,06.7,0000.0,0016.22,0005.27,0003.76
2021-12-14 08:41:00,,0823.4,5.00,0.00,25.9,25.0,00.0,34.8,27.6,06.7,0000.0,0016.88,0005.22,0003.75
2021-12-14 08:42:00,,0823.4,4.98,0.00,25.9,25.0,00.0,34.8,27.6,06.7,0000.0,0017.23,0005.24,0003.75
2021-12-14 08:43:00,,0823.4,5.01,0.00,25.9,25.0,00.0,34.8,27.6,06.8,0000.0,0017.97,0005.27,0003.76
2021-12-14 08:44:00,,0823.3,4.99,0.00,25.9,25.0,00.0,34.8,27.6,06.7,0000.0,0017.98,0005.25,0003.79
2021-12-14 08:45:00,,0823.3,5.00,0.00,25.9,25.0,00.0,34.8,27.6,06.7,0000.0,0017.17,0005.29,0003.81
2021-12-14 08:46:00,,0823.4,5.01,0.00,25.9,25.0,00.0,34.8,27.6,06.7,0000.0,0017.52,0005.44,0003.83
2021-12-14 08:47:00,,0823.4,4.99,0.00,25.9,25.0,00.0,34.8,27.6,06.7,0000.0,0018.14,0005.48,0003.86
2021-12-14 08:48:00,,0823.4,5.01,0.00,25.9,25.1,00.0,34.8,27.6,06.7,0000.0,0018.09,0005.50,0003.87
2021-12-14 08:49:00,,0823.4,4.99,0.00,25.9,25.0,00.0,34.8,27.6,06.7,0000.0,0018.54,0005.48,0003.88
2021-12-14 08:50:00,,0823.4,5.01,0.00,25.9,25.0,00.0,34.8,27.6,06.7,0000.0,0019.08,0005.52,0003.90
2021-12-14 08:51:00,,0823.3,4.99,0.00,25.9,25.0,00.0,34.8,27.6,06.7,0000.0,0019.12,0005.65,0003.94
2021-12-14 08:52:00,,0823.3,5.00,0.00,25.9,25.0,00.0,34.8,27.7,06.7,0000.0,0018.90,0005.69,0003.96
2021-12-14 08:53:00,,0823.4,5.02,0.00,25.9,25.0,00.0,34.8,27.6,06.7,0000.0,0018.51,0005.66,0003.97
2021-12-14 08:54:00,,0823.4,4.98,0.00,25.9,25.0,00.0,34.9,27.7,06.7,0000.0,0018.62,0005.62,0003.98
2021-12-14 08:55:00,,0823.4,5.01,0.00,25.9,25.1,00.0,34.9,27.7,06.7,0000.0,0018.58,0005.61,0003.98
2021-12-14 08:56:00,,0823.5,4.99,0.00,25.9,25.0,00.0,34.9,27.7,06.7,0000.0,0019.31,0005.60,0003.98
2021-12-14 08:57:00,,0823.5,5.01,0.00,25.9,25.0,00.0,34.9,27.7,06.6,0000.0,0018.30,0005.50,0003.96
2021-12-14 08:58:00,,0823.5,4.99,0.00,25.9,25.0,00.0,34.9,27.7,06.6,0000.0,0017.72,0005.44,0003.94
2021-12-14 08:59:00,,0823.4,5.00,0.00,25.9,25.0,00.0,34.9,27.6,06.7,0000.0,0018.06,0005.36,0003.93
